This is the latest recevied weather packets stored in our database for station/object N9EA. If no packets are shown the sender has not sent any weather packets the latest 10 day(s).
| Time | Temp. | Humidity | Pressure | Rain* | Wind** | Luminosity | Snow |
|---|---|---|---|---|---|---|---|
| 1777642468 | 6.67° C | 63% | 1016.8 hPa | 0 mm | - | 122 W/m² | - |
| 1777642164 | 6.67° C | 63% | 1016.9 hPa | 0 mm | - | 101 W/m² | - |
| 1777641861 | 6.67° C | 63% | 1016.8 hPa | 0 mm | - | 98 W/m² | - |
| 1777641561 | 6.11° C | 64% | 1016.7 hPa | 0 mm | - | 70 W/m² | - |
| 1777641261 | 6.11° C | 63% | 1016.9 hPa | 0 mm | - | 65 W/m² | - |
| 1777640958 | 6.67° C | 63% | 1017 hPa | 0 mm | - | 88 W/m² | - |
| 1777640655 | 6.11° C | 64% | 1016.9 hPa | 0 mm | - | 94 W/m² | - |
| 1777640350 | 6.11° C | 63% | 1017.1 hPa | 0 mm | - | 73 W/m² | - |
| 1777640048 | 6.11° C | 63% | 1016.8 hPa | 0 mm | - | 52 W/m² | - |
| 1777639744 | 6.11° C | 63% | 1017 hPa | 0 mm | - | 52 W/m² | - |
| 1777639442 | 6.11° C | 63% | 1016.9 hPa | 0 mm | - | 58 W/m² | - |
| 1777639137 | 6.11° C | 63% | 1016.7 hPa | 0 mm | - | 55 W/m² | - |
| 1777638835 | 5.56° C | 64% | 1016.5 hPa | 0 mm | - | 57 W/m² | - |
| 1777638530 | 5.56° C | 64% | 1016.7 hPa | 0 mm | - | 69 W/m² | - |
| 1777638227 | 5.56° C | 64% | 1016.5 hPa | 0 mm | - | 58 W/m² | - |
| 1777637923 | 5.56° C | 64% | 1016.4 hPa | 0 mm | - | 52 W/m² | - |
| 1777637619 | 5.56° C | 64% | 1016.3 hPa | 0 mm | - | 49 W/m² | - |
| 1777637317 | 5.56° C | 64% | 1016.5 hPa | 0 mm | - | 32 W/m² | - |
| 1777637013 | 5.56° C | 64% | 1016.4 hPa | 0 mm | - | 17 W/m² | - |
| 1777636709 | 5.56° C | 66% | 1016.3 hPa | 0 mm | - | 14 W/m² | - |
| 1777636406 | 5.56° C | 66% | 1016.4 hPa | 0 mm | - | 23 W/m² | - |
| 1777636101 | 5° C | 68% | 1016.3 hPa | 0 mm | - | 31 W/m² | - |
| 1777635797 | 4.44° C | 69% | 1016 hPa | 0 mm | - | 28 W/m² | - |
| 1777635494 | 4.44° C | 71% | 1016.1 hPa | 0 mm | - | 22 W/m² | - |
| 1777635190 | 3.89° C | 71% | 1015.9 hPa | 0 mm | - | 19 W/m² | - |
* Rain latest hour (hover to see other rain measurements)
** Current wind speed in m/s (hover to see current wind gust speed)